FW0267 Weather Reports


time (UTC)temp
F
wind
direction
speed
knots
gust
knots
rain 1hr
in
rain 24hr
in
rain mn
in
humidity
%
barometer
mb
20260506182539 66 211 0.0 3.5 0.00 0.06 0.06 1 1011.0
20260506182037 66 211 1.7 3.5 0.00 0.06 0.06 1 1011.1
20260506181546 66 234 0.9 2.6 0.00 0.06 0.06 1 1011.2
20260506181035 66 215 0.9 3.5 0.00 0.06 0.06 1 1011.3
20260506180534 66 215 0.9 3.5 0.00 0.06 0.06 1 1011.3
20260506180032 66 207 1.7 6.1 0.00 0.06 0.06 1 1011.3
20260506175530 66 183 1.7 5.2 0.00 0.06 0.06 1 1011.4
20260506175028 66 203 1.7 7.0 0.00 0.06 0.06 1 1011.4
20260506174532 66 243 0.9 4.3 0.00 0.06 0.06 1 1011.4
20260506174028 66 236 0.9 7.0 0.00 0.06 0.06 1 1011.5
20260506173527 66 236 0.9 7.0 0.00 0.06 0.06 1 1011.5
20260506173040 66 61 0.9 4.3 0.00 0.06 0.06 1 1011.4
20260506172521 66 232 0.9 4.3 0.00 0.06 0.06 1 1011.3
20260506172020 66 236 0.9 3.5 0.00 0.06 0.06 1 1011.4
20260506171520 65 225 0.0 4.3 0.00 0.06 0.06 1 1011.3
20260506171019 65 225 0.9 4.3 0.00 0.06 0.06 1 1011.3
20260506170515 65 115 0.0 4.3 0.00 0.06 0.06 1 1011.3
20260506170013 65 180 0.0 5.2 0.00 0.06 0.06 1 1011.7
20260506165515 65 233 0.9 5.2 0.00 0.06 0.06 1 1011.9
20260506165010 65 202 1.7 5.2 0.00 0.06 0.06 1 1011.6
20260506164510 65 200 0.9 4.3 0.00 0.06 0.06 1 1011.4
20260506164007 64 188 0.9 4.3 0.00 0.06 0.06 1 1011.4
20260506163506 64 184 0.9 3.5 0.00 0.06 0.06 1 1011.7
20260506163009 64 178 1.7 4.3 0.00 0.06 0.06 1 1011.9
20260506162508 64 179 0.9 2.6 0.00 0.06 0.06 1 1011.5
20260506162004 64 179 0.9 5.2 0.00 0.06 0.06 1 1011.4
20260506161501 64 213 1.7 5.2 0.00 0.06 0.06 1 1011.5
20260506161059 64 178 0.9 3.5 0.00 0.06 0.06 1 1011.5
20260506160557 64 178 0.9 7.8 0.00 0.06 0.06 1 1011.5
20260506160057 64 24 0.9 12.2 0.00 0.06 0.06 1 1011.7
20260506155558 64 151 1.7 6.1 0.00 0.06 0.06 1 1011.7
20260506155057 64 53 0.0 7.0 0.00 0.06 0.06 1 1011.9
20260506154609 64 178 0.9 7.0 0.01 0.06 0.06 1 1011.9
20260506154050 64 214 0.9 3.5 0.02 0.06 0.06 1 1012.1
20260506153549 64 168 0.9 5.2 0.03 0.06 0.06 1 1012.2
20260506153047 64 184 0.9 5.2 0.04 0.06 0.06 1 1012.3
20260506152547 64 159 0.0 3.5 0.04 0.06 0.06 1 1012.3
20260506152044 64 83 0.9 3.5 0.04 0.06 0.06 1 1012.4
20260506151544 64 159 0.9 4.3 0.05 0.06 0.06 1 1012.3
20260506151043 64 148 1.7 4.3 0.05 0.06 0.06 1 1012.3
20260506150542 64 183 0.0 7.0 0.05 0.06 0.06 1 1012.3
20260506150040 64 180 0.9 7.0 0.06 0.06 0.06 1 1012.4
20260506145540 63 169 0.9 4.3 0.06 0.06 0.06 1 1012.4
20260506145038 63 179 0.9 2.6 0.06 0.06 0.06 1 1012.6
20260506144542 64 183 0.0 3.5 0.05 0.05 0.05 1 1012.5
20260506144034 64 159 0.0 2.6 0.04 0.04 0.04 1 1012.6
20260506143533 64 178 0.0 2.6 0.03 0.03 0.03 1 1012.9
20260506143031 64 174 0.0 0.0 0.02 0.02 0.02 1 1012.8
20260506142529 64 174 0.0 0.0 0.02 0.02 0.02 1 1012.9
20260506142028 64 174 0.0 0.0 0.02 0.02 0.02 1 1012.8
20260506141527 64 174 0.0 2.6 0.01 0.01 0.01 1 1012.8
20260506141025 64 174 0.9 5.2 0.01 0.01 0.01 1 1012.7
20260506140523 65 191 0.0 5.2 0.01 0.01 0.01 1 1012.6
20260506140023 65 156 0.9 4.3 0.00 0.00 0.00 1 1012.6
20260506135521 65 180 1.7 3.5 0.00 0.00 0.00 1 1012.5
20260506135022 65 180 0.9 5.2 0.00 0.00 0.00 9 1012.6
20260506134517 65 236 1.7 5.2 0.00 0.00 0.00 18 1012.6
20260506134017 66 224 1.7 4.3 0.00 0.00 0.00 20 1012.7
20260506133518 65 205 1.7 8.7 0.00 0.00 0.00 22 1012.6
20260506133014 65 160 1.7 8.7 0.00 0.00 0.00 22 1012.5
20260506132512 66 199 1.7 5.2 0.00 0.00 0.00 22 1012.6
20260506132014 66 207 1.7 5.2 0.00 0.00 0.00 21 1012.4
20260506131509 66 212 0.9 3.5 0.00 0.00 0.00 20 1012.5
20260506131011 66 211 0.9 7.0 0.00 0.00 0.00 20 1012.4
20260506130509 65 167 1.7 5.2 0.00 0.00 0.00 19 1012.2
20260506130006 65 223 1.7 7.0 0.00 0.00 0.00 17 1012.3
20260506125503 65 137 1.7 6.1 0.00 0.00 0.00 17 1012.2
20260506125004 65 142 1.7 8.7 0.00 0.00 0.00 15 1012.1
20260506124601 65 167 1.7 8.7 0.00 0.00 0.00 13 1012.1
20260506124058 65 240 0.9 3.5 0.00 0.00 0.00 11 1012.2
20260506123558 65 200 0.9 2.6 0.00 0.00 0.00 10 1012.1
20260506123056 65 200 0.9 2.6 0.00 0.00 0.00 12 1012.1
20260506122554 65 197 1.7 7.8 0.00 0.00 0.00 12 1012.0
20260506122053 65 178 0.9 6.1 0.00 0.00 0.00 12 1011.9
20260506121551 65 200 1.7 6.1 0.00 0.00 0.00 11 1011.9
20260506121049 65 159 0.9 6.1 0.00 0.00 0.00 8 1012.0
20260506120549 65 159 1.7 6.1 0.00 0.00 0.00 8 1012.1
20260506120047 65 186 1.7 5.2 0.00 0.00 0.00 6 1012.1
20260506115544 64 180 1.7 5.2 0.00 0.00 0.00 6 1012.1
20260506115043 64 165 0.0 4.3 0.00 0.00 0.00 6 1012.2
20260506114547 64 165 1.7 4.3 0.00 0.00 0.00 6 1012.2
20260506114040 64 173 0.9 3.5 0.00 0.00 0.00 5 1012.1
20260506113539 64 177 0.9 2.6 0.00 0.00 0.00 5 1012.1
20260506113038 64 173 0.9 6.1 0.00 0.00 0.00 5 1012.0
20260506112536 64 170 1.7 6.1 0.00 0.00 0.00 6 1012.1
20260506112034 64 154 0.9 5.2 0.00 0.00 0.00 7 1012.1
20260506111533 64 150 0.9 4.3 0.00 0.00 0.00 7 1012.1
20260506111032 64 241 0.9 5.2 0.00 0.00 0.00 8 1012.0
20260506110530 64 194 1.7 5.2 0.00 0.00 0.00 9 1012.0
20260506110030 63 171 1.7 5.2 0.00 0.00 0.00 9 1012.0
20260506105527 63 157 1.7 6.1 0.00 0.00 0.00 10 1012.2
20260506105025 63 199 1.7 4.3 0.00 0.00 0.00 11 1012.2
20260506104548 63 144 1.7 5.2 0.00 0.00 0.00 11 1012.3
20260506104023 63 192 0.9 6.1 0.00 0.00 0.00 11 1012.3
20260506103521 63 191 0.0 6.1 0.00 0.00 0.00 12 1012.4
20260506103019 63 167 1.7 6.1 0.00 0.00 0.00 12 1012.4
20260506102519 63 186 0.9 3.5 0.00 0.00 0.00 12 1012.4
20260506102017 63 184 1.7 4.3 0.00 0.00 0.00 12 1012.3
20260506101516 63 208 0.9 7.0 0.00 0.00 0.00 13 1012.2
20260506101013 63 215 0.9 3.5 0.00 0.00 0.00 13 1012.1
20260506100515 63 202 0.9 6.1 0.00 0.00 0.00 13 1012.0
20260506100011 63 172 0.9 5.2 0.00 0.00 0.00 13 1012.0
20260506095512 63 188 0.9 7.8 0.00 0.00 0.00 12 1012.0
20260506095009 63 171 2.6 6.1 0.00 0.00 0.00 12 1012.1
20260506094507 63 179 0.9 6.1 0.00 0.00 0.00 11 1012.0
20260506094005 63 207 0.9 3.5 0.00 0.00 0.00 11 1012.0
20260506093504 63 126 1.7 7.0 0.00 0.00 0.00 10 1011.9
20260506093003 63 181 1.7 4.3 0.00 0.00 0.00 10 1012.0
20260506092501 63 206 0.9 6.1 0.00 0.00 0.00 9 1011.8
20260506092100 63 180 1.7 7.0 0.00 0.00 0.00 8 1011.8
20260506091602 64 205 1.7 7.0 0.00 0.00 0.00 6 1011.8
20260506091057 64 181 1.7 4.3 0.00 0.00 0.00 6 1012.0
20260506090555 64 174 0.9 6.1 0.00 0.00 0.00 5 1012.1
20260506090054 64 155 1.7 7.0 0.00 0.00 0.00 5 1012.2
20260506085552 64 192 1.7 7.0 0.00 0.00 0.00 5 1012.0
20260506085054 64 176 0.9 8.7 0.00 0.00 0.00 5 1012.1
20260506084551 64 178 1.7 8.7 0.00 0.00 0.00 5 1012.2
20260506084048 64 178 0.9 7.0 0.00 0.00 0.00 5 1012.3
20260506083547 64 198 1.7 7.0 0.00 0.00 0.00 5 1012.3
20260506083048 64 161 0.9 6.1 0.00 0.00 0.00 6 1012.5
20260506082544 64 156 1.7 6.1 0.00 0.00 0.00 7 1012.4
20260506082044 64 71 0.9 5.2 0.00 0.00 0.00 8 1012.5
20260506081543 64 174 0.0 5.2 0.00 0.00 0.00 9 1012.4
20260506081043 64 173 0.9 3.5 0.00 0.00 0.00 10 1012.4
20260506080543 64 182 0.9 3.5 0.00 0.00 0.00 12 1012.4
20260506073036 65 144 1.7 7.0 0.00 0.00 0.00 18 1012.4
20260506072536 65 158 0.9 5.2 0.00 0.00 0.00 19 1012.4
20260506072036 65 191 1.7 6.1 0.00 0.00 0.00 19 1012.6
20260506071536 65 124 0.9 6.1 0.00 0.00 0.00 20 1012.6
20260506071034 65 165 1.7 6.1 0.00 0.00 0.00 20 1012.6
20260506070536 65 154 0.9 3.5 0.00 0.00 0.00 21 1012.5
20260506062028 66 205 1.7 3.5 0.00 0.00 0.00 25 1012.9
20260506061527 66 138 0.9 6.1 0.00 0.00 0.00 27 1012.8
20260506061028 66 194 2.6 6.1 0.00 0.00 0.00 28 1012.7
20260506060526 66 152 0.9 4.3 0.00 0.00 0.00 30 1012.8
20260506051016 68 140 1.7 6.1 0.00 0.00 0.00 42 1013.2
20260506050516 68 173 0.9 7.0 0.00 0.00 0.00 43 1013.3
20260506045013 68 182 0.9 6.1 0.00 0.00 0.00 45 1013.4
20260506044513 69 90 1.7 6.1 0.00 0.00 0.00 45 1013.4
20260506044012 69 240 0.9 6.1 0.00 0.00 0.00 46 1013.4
20260506043516 69 245 0.9 10.4 0.00 0.00 0.00 46 1013.5
20260506043016 69 179 2.6 10.4 0.00 0.00 0.00 47 1013.5
20260506042515 69 191 1.7 7.0 0.00 0.00 0.00 48 1013.5
20260506042010 69 159 1.7 7.0 0.00 0.00 0.00 49 1013.4
20260506041510 69 198 0.9 6.1 0.00 0.00 0.00 51 1013.3
20260506041008 69 198 1.7 6.1 0.00 0.00 0.00 52 1013.4
20260506040508 69 212 1.7 6.1 0.00 0.00 0.00 53 1013.4
20260506040008 69 150 0.9 4.3 0.00 0.00 0.00 54 1013.4
20260506035506 70 196 1.7 4.3 0.00 0.00 0.00 54 1013.4
20260506035006 70 162 1.7 3.5 0.00 0.00 0.00 55 1013.3
20260506034506 70 194 0.0 3.5 0.00 0.00 0.00 55 1013.4
20260506034005 70 171 0.9 3.5 0.00 0.00 0.00 55 1013.4
20260506033606 70 235 0.9 6.1 0.00 0.00 0.00 55 1013.4
20260506033006 70 136 0.9 3.5 0.00 0.00 0.00 55 1013.4
20260506032505 70 198 1.7 3.5 0.00 0.00 0.00 55 1013.4
20260506032005 71 185 0.9 5.2 0.00 0.00 0.00 55 1013.4
20260506031505 71 155 1.7 4.3 0.00 0.00 0.00 55 1013.4
20260506031005 71 196 0.9 6.1 0.00 0.00 0.00 55 1013.3
20260506030504 71 167 1.7 6.1 0.00 0.00 0.00 55 1013.3
20260506030004 71 200 0.9 4.3 0.00 0.00 0.00 54 1013.2
20260506025506 71 186 1.7 4.3 0.00 0.00 0.00 54 1013.2
20260506025003 71 159 0.9 3.5 0.00 0.00 0.00 54 1013.3
20260506024511 71 134 0.9 6.1 0.00 0.00 0.00 54 1013.4
20260506024105 71 168 0.9 6.1 0.00 0.00 0.00 54 1013.4
20260506023605 71 182 0.9 5.2 0.00 0.00 0.00 53 1013.4
20260506023002 72 155 0.9 7.0 0.00 0.00 0.00 53 1013.4
20260506022502 72 225 2.6 7.0 0.00 0.00 0.00 53 1013.3
20260506022002 72 153 1.7 5.2 0.00 0.00 0.00 53 1013.4
20260506021504 72 177 0.0 5.2 0.00 0.00 0.00 53 1013.3
20260506021002 72 194 0.9 4.3 0.00 0.00 0.00 53 1013.3
20260506020502 72 172 1.7 6.1 0.00 0.00 0.00 52 1013.2
20260506020002 72 207 0.9 4.3 0.00 0.00 0.00 52 1013.2
20260506015601 72 207 0.9 4.3 0.00 0.00 0.00 52 1013.2
20260506015101 72 159 0.9 2.6 0.00 0.00 0.00 51 1013.2
20260506014600 72 109 0.9 7.0 0.00 0.00 0.00 51 1013.0
20260506014100 73 173 0.9 7.0 0.00 0.00 0.00 51 1013.0
20260506013600 73 175 0.9 2.6 0.00 0.00 0.00 51 1013.1
20260506013100 73 175 0.9 7.0 0.00 0.00 0.00 51 1013.0
20260506012600 73 217 1.7 9.6 0.00 0.00 0.00 50 1012.9
20260506012103 73 44 1.7 9.6 0.00 0.00 0.00 50 1012.9
20260506011600 73 168 0.0 7.8 0.00 0.00 0.00 49 1012.7
20260506011059 73 159 0.9 6.1 0.00 0.00 0.00 49 1012.7
20260506010559 74 159 0.0 7.8 0.00 0.00 0.00 49 1012.7
20260506005559 74 145 0.9 4.3 0.00 0.00 0.00 48 1012.6
20260506005058 74 160 0.9 5.2 0.00 0.00 0.00 48 1012.5
20260506004603 74 147 0.0 3.5 0.00 0.00 0.00 48 1012.5
20260506004058 74 157 0.0 4.3 0.00 0.00 0.00 47 1012.5
20260506003601 75 177 1.7 4.3 0.00 0.00 0.00 47 1012.4
20260506003116 75 169 0.9 4.3 0.00 0.00 0.00 47 1012.3
20260506002601 75 127 0.0 4.3 0.00 0.00 0.00 47 1012.4
20260506002058 75 155 0.9 5.2 0.00 0.00 0.00 46 1012.5
20260506001618 75 180 0.9 5.2 0.00 0.00 0.00 46 1012.3
20260506001058 76 171 0.0 2.6 0.00 0.00 0.00 46 1012.3
20260506000558 76 192 0.9 4.3 0.00 0.00 0.00 45 1012.3
20260506000105 76 128 0.9 4.3 0.00 0.00 0.00 45 1012.2
20260505235557 76 217 1.7 6.1 0.00 0.00 0.00 45 1012.2
20260505235056 76 169 0.9 6.1 0.00 0.00 0.00 45 1012.3
20260505234612 76 217 0.9 5.2 0.00 0.00 0.00 44 1012.3
20260505234057 77 188 0.0 3.5 0.00 0.00 0.00 44 1012.1
20260505233557 77 160 0.9 7.0 0.00 0.00 0.00 44 1012.1
20260505233057 77 137 0.9 7.8 0.00 0.00 0.00 43 1012.1
20260505232556 77 107 0.9 3.5 0.00 0.00 0.00 43 1012.1
20260505232058 77 150 0.9 7.8 0.00 0.00 0.00 43 1012.1
20260505231556 77 170 1.7 7.8 0.00 0.00 0.00 42 1012.2
20260505231055 77 183 1.7 5.2 0.00 0.00 0.00 41 1012.1
20260505230555 78 45 1.7 5.2 0.00 0.00 0.00 42 1012.1
20260505230055 78 133 0.9 4.3 0.00 0.00 0.00 41 1012.1
20260505225558 78 157 0.9 6.1 0.00 0.00 0.00 41 1012.0
20260505225055 78 219 2.6 6.1 0.00 0.00 0.00 40 1012.1
20260505224555 78 146 0.9 5.2 0.00 0.00 0.00 40 1012.1
20260505224055 79 182 2.6 6.1 0.00 0.00 0.00 39 1012.1
20260505223554 79 153 1.7 10.4 0.00 0.00 0.00 39 1012.1
20260505223105 79 37 0.9 10.4 0.00 0.00 0.00 39 1012.1
20260505222551 79 152 0.9 7.8 0.00 0.00 0.00 39 1012.1
20260505222049 79 203 3.5 7.8 0.00 0.00 0.00 38 1012.0
20260505221548 80 165 0.9 8.7 0.00 0.00 0.00 37 1012.0
20260505221047 80 147 3.5 8.7 0.00 0.00 0.00 37 1012.0
20260505220544 80 229 1.7 10.4 0.00 0.00 0.00 38 1011.9
20260505220047 80 186 1.7 10.4 0.00 0.00 0.00 37 1011.9
20260505215542 80 174 2.6 7.8 0.00 0.00 0.00 36 1011.9
20260505215040 80 153 2.6 9.6 0.00 0.00 0.00 35 1011.9
20260505214552 80 215 0.9 13.0 0.00 0.00 0.00 34 1011.8
20260505214041 80 174 4.3 13.0 0.00 0.00 0.00 33 1011.8
20260505213536 80 230 1.7 8.7 0.00 0.00 0.00 33 1011.9
20260505213034 81 260 3.5 8.7 0.00 0.00 0.00 32 1012.0
20260505212533 81 198 1.7 6.1 0.00 0.00 0.00 32 1011.9
20260505212034 81 230 1.7 4.3 0.00 0.00 0.00 32 1011.9
20260505211540 82 195 1.7 3.5 0.00 0.00 0.00 32 1011.9
20260505211028 82 182 0.9 7.8 0.00 0.00 0.00 32 1012.0
20260505210530 82 167 1.7 7.8 0.00 0.00 0.00 30 1011.9
20260505210025 82 201 1.7 15.6 0.00 0.00 0.00 30 1011.9
20260505205524 82 90 1.7 15.6 0.00 0.00 0.00 30 1012.0
20260505205021 83 150 2.6 12.2 0.00 0.00 0.00 30 1011.9
20260505204522 83 171 2.6 8.7 0.00 0.00 0.00 30 1011.9
20260505204019 83 216 1.7 4.3 0.00 0.00 0.00 30 1011.8
20260505203517 83 206 1.7 4.3 0.00 0.00 0.00 30 1011.7
20260505203016 84 188 1.7 4.3 0.00 0.00 0.00 28 1011.8
20260505202515 84 245 1.7 5.2 0.00 0.00 0.00 28 1011.7
20260505202014 85 247 0.9 5.2 0.00 0.00 0.00 27 1011.8
20260505201512 85 146 2.6 6.1 0.00 0.00 0.00 27 1012.0
20260505201013 85 186 1.7 7.0 0.00 0.00 0.00 27 1011.9
20260505200509 85 251 1.7 7.8 0.00 0.00 0.00 26 1012.0
20260505200008 86 161 2.6 7.8 0.00 0.00 0.00 25 1012.0
20260505195506 86 192 1.7 7.0 0.00 0.00 0.00 26 1012.2
20260505195004 86 221 3.5 9.6 0.00 0.00 0.00 27 1012.2
20260505194504 86 61 2.6 15.6 0.00 0.00 0.00 27 1012.3
20260505194001 86 211 3.5 15.6 0.00 0.00 0.00 26 1012.3
20260505193600 86 234 2.6 13.0 0.00 0.00 0.00 26 1012.2
20260505193059 87 172 4.3 13.0 0.00 0.00 0.00 26 1012.3
20260505192559 87 243 2.6 7.8 0.00 0.00 0.00 26 1012.2
20260505192056 88 227 1.7 5.2 0.00 0.00 0.00 28 1012.4
20260505191556 87 157 1.7 6.1 0.00 0.00 0.00 28 1012.5
20260505191053 87 140 1.7 7.0 0.00 0.00 0.00 28 1012.5
20260505190551 87 145 0.9 8.7 0.00 0.00 0.00 29 1012.6
20260505190050 87 216 1.7 8.7 0.00 0.00 0.00 28 1012.8
20260505185548 87 201 2.6 8.7 0.00 0.00 0.00 27 1012.8
20260505185046 86 148 3.5 8.7 0.00 0.00 0.00 26 1012.9
20260505184550 87 223 1.7 7.8 0.00 0.00 0.00 27 1012.9
20260505184044 87 227 2.6 7.8 0.00 0.00 0.00 26 1012.9
20260505183541 87 223 2.6 7.8 0.00 0.00 0.00 27 1013.0
20260505183045 87 240 3.5 12.2 0.00 0.00 0.00 26 1013.2